sat.trackr.live / text

‹ back to catalog

STARLINK-31532

NORAD 59349 · 2024-060B

PAYLOAD ACTIVE UNKNOWN

§ Identity

Operator
Country
US
Launch date
2024-03-31
Launch site
AFETR
Launch vehicle
Mass (kg)
RCS (m²)

Purposes: comms

External: N2YO · Heavens-Above · Gunter

§ Orbital elements

Epoch: 2026-09-20T22:32:16.904256Z

Period
94.27 min
Inclination
43.0005°
Eccentricity
0.0000983
Mean motion
15.27578304 rev/d
Perigee alt
482.4 km
Apogee alt
483.7 km
Semi-major
6,861.2 km
B*
2.2731e-5
RAAN
237.1965°
Arg perigee
244.2367°
Mean anomaly
115.8383°
Rev number
13,997

§ Raw data

STARLINK-315321 59349U 24060B   26263.93908454  .00000364  00000+0  22731-4 0  99942 59349  43.0005 237.1965 0000983 244.2367 115.8383 15.27578304139975

JSON: /api/v1/satellites/59349 · /tle

For live sub-satellite position, see the globe view (requires WebGL).

§ Visibility from observer

Set your observer location to see the next 7 days of passes ≥ 10°. The values pass through the URL so the page stays shareable.

No JS? Fill the form by hand. The geolocation button needs JavaScript.